STARLINK-36350, 67572

Orbit data source: Space-Track

STARLINK-36350, 67572 is a payload satellite owned by SpaceX/Seattle (US) in SSO that was launched on Sun, 25 Jan 2026 UTC via an FALCON 9 launch vehicle from the Air Force Western Test Range (AFWTR). Payload-class satellites include a variety of spacecraft equipped with specific instruments for various scientific and technological missions. These include communications satellites like Starlink; space stations such as the ISS; scientific satellites like the Hubble; Earth observation satellites from companies like Planet Labs, Umbra, and HawkEye 360; GPS; miniature CubeSats for education and research; and military/defense satellites.

Loading next visibility...
Identifier
67572, 2026-016M
Orbit
SSO
Country
Flag of USUS
Related business
Manufacturer
SpaceX/Seattle
Mission
Operational Commercial Communications
Bus & Motor
STARLINK V2MO, Unknown motor
Mass
575 kg wet, ~530 kg dry
Launch date (UTC)
2026-01-25 (5 months ago)
Launch vehicle
FALCON 9
Launch site
Air Force Western Test Range (AFWTR)
Object type
Payload
Rocket body
Debris
Shape & HBR
Box + 2 Pan, 17.7 m
Radar Cross Section
36.964 m², Large (>1 m²)

Expand to show TLE details & history
Last TLE update: 1 day ago

TLE from 1 day ago
0 STARLINK-36350
1 67572U 26016M   26170.74272125  .00014936  00000-0  46400-3 0  9998
2 67572  97.2838 230.7041 0000650 138.4895 221.6397 15.33449002 22502
Epoch: 2026-06-19T17:49Z
TLE epoch observation values (Epoch: 2026-06-19T17:49:31.115Z)
Latitude
-0.00007°
Longitude
55.35714°
Altitude
468.976 km
Speed
7.632 km/s
True Right ascension
15h 22m 48s
True Declination
0° 00' 00"
Sunlit
Object was in full shadow at epoch
Visualization orbit readout
Latitude
Unknown
Longitude
Unknown
Altitude
Unknown
Speed
Unknown
Apparent Right ascension
Unknown
Apparent Declination
Unknown
Sunlit
N/A
Visualization observer readout
Local Sidereal Time
07:23:27
Azimuth
Unknown
Elevation
Unknown
Doppler factor
Unknown
Orbital elements
Apogee altitude
462.919 km
Perigee altitude
462.029 km
Semi-major axis
6,840.611 km
Eccentricity
0.00007
Inclination
97.2838°
RAAN
230.7041°
Arg. of periapsis
138.4895°
True anomaly
221.63475°
Mean anomaly
221.6397°
Eccentric anomaly
221.63723°
Mean motion
3.8362 °/min
Orbital period
93.84 mins
BSTAR
0.000464
Loading maneuver chart data...
Computing Atmospheric mass density...
Loading historical data...
Loading historical data...
Loading historical data...
Loading historical data...
Loading historical data...
Loading historical data...
Loading historical data...

Documentation

Showing up to 5 results
|